Time,TemperatureF,DewpointF,PressureIn,WindDirection,WindDirectionDegrees,WindSpeedMPH,WindSpeedGustMPH,Humidity,HourlyPrecipIn,Conditions,Clouds,dailyrainin,SoftwareType,DateUTC
2013-02-13 00:00:00,42.3,26.8,29.98,NW,315,1.0,2.0,54,0.00,,,0.00,meteohub,2013-02-13 05:00:00,
2013-02-13 00:05:00,41.9,27.0,29.97,NW,315,1.0,2.0,55,0.00,,,0.00,meteohub,2013-02-13 05:05:00,
2013-02-13 00:10:00,41.5,27.0,29.97,NW,315,2.0,2.0,56,0.00,,,0.00,meteohub,2013-02-13 05:10:00,
2013-02-13 00:15:00,41.4,27.3,29.96,South,180,2.0,3.0,57,0.00,,,0.00,meteohub,2013-02-13 05:15:00,
2013-02-13 00:20:00,41.2,27.1,29.96,South,180,2.0,3.0,57,0.00,,,0.00,meteohub,2013-02-13 05:20:00,
2013-02-13 00:25:00,41.2,26.6,29.96,NW,315,2.0,2.0,56,0.00,,,0.00,meteohub,2013-02-13 05:25:00,
2013-02-13 00:30:00,41.4,26.8,29.95,SW,225,1.0,2.0,56,0.00,,,0.00,meteohub,2013-02-13 05:30:00,
2013-02-13 00:35:00,41.4,27.3,29.95,SW,225,2.0,2.0,57,0.00,,,0.00,meteohub,2013-02-13 05:35:00,
2013-02-13 00:40:00,41.4,27.7,29.94,SW,225,2.0,2.0,58,0.00,,,0.00,meteohub,2013-02-13 05:40:00,
2013-02-13 00:46:00,41.5,27.9,29.94,SE,135,2.0,2.0,58,0.00,,,0.00,meteohub,2013-02-13 05:46:00,
2013-02-13 00:51:00,41.7,27.1,29.94,South,180,2.0,2.0,56,0.00,,,0.00,meteohub,2013-02-13 05:51:00,
2013-02-13 00:56:00,42.1,27.1,29.94,North,0,1.0,2.0,55,0.00,,,0.00,meteohub,2013-02-13 05:56:00,
2013-02-13 01:01:00,42.4,27.5,29.94,South,180,2.0,2.0,55,0.00,,,0.00,meteohub,2013-02-13 06:01:00,
2013-02-13 01:06:00,42.6,28.0,29.93,SW,225,1.0,2.0,56,0.00,,,0.00,meteohub,2013-02-13 06:06:00,
2013-02-13 01:11:00,42.8,27.3,29.93,South,180,2.0,2.0,54,0.00,,,0.00,meteohub,2013-02-13 06:11:00,
2013-02-13 01:16:00,42.8,28.2,29.93,SE,135,2.0,2.0,56,0.00,,,0.00,meteohub,2013-02-13 06:16:00,
2013-02-13 01:21:00,42.8,28.2,29.93,SE,135,2.0,2.0,56,0.00,,,0.00,meteohub,2013-02-13 06:21:00,
2013-02-13 01:26:00,43.0,28.4,29.93,South,180,2.0,2.0,56,0.00,,,0.00,meteohub,2013-02-13 06:26:00,
2013-02-13 01:31:00,43.2,28.0,29.92,SW,225,2.0,2.0,55,0.00,,,0.00,meteohub,2013-02-13 06:31:00,
2013-02-13 01:36:00,43.3,27.9,29.93,South,180,2.0,3.0,54,0.00,,,0.00,meteohub,2013-02-13 06:36:00,
2013-02-13 01:41:00,43.7,27.7,29.92,SW,225,2.0,3.0,53,0.00,,,0.00,meteohub,2013-02-13 06:41:00,
2013-02-13 01:46:00,43.9,28.4,29.93,SE,135,2.0,3.0,54,0.00,,,0.00,meteohub,2013-02-13 06:46:00,
2013-02-13 01:51:00,43.9,28.8,29.92,South,180,2.0,3.0,55,0.00,,,0.00,meteohub,2013-02-13 06:51:00,
2013-02-13 01:56:00,43.7,28.2,29.91,South,180,2.0,2.0,54,0.00,,,0.00,meteohub,2013-02-13 06:56:00,
2013-02-13 02:01:00,43.7,28.2,29.90,South,180,2.0,2.0,54,0.00,,,0.00,meteohub,2013-02-13 07:01:00,
2013-02-13 02:06:00,43.7,27.7,29.90,SW,225,2.0,2.0,53,0.00,,,0.00,meteohub,2013-02-13 07:06:00,
2013-02-13 02:11:00,44.1,26.6,29.91,South,180,2.0,3.0,50,0.00,,,0.00,meteohub,2013-02-13 07:11:00,
2013-02-13 02:16:00,44.2,27.7,29.92,SW,225,2.0,3.0,52,0.00,,,0.00,meteohub,2013-02-13 07:16:00,
2013-02-13 02:21:00,44.2,27.7,29.92,South,180,1.0,3.0,52,0.00,,,0.00,meteohub,2013-02-13 07:21:00,
2013-02-13 02:26:00,44.2,27.7,29.91,East,90,1.0,2.0,52,0.00,,,0.00,meteohub,2013-02-13 07:26:00,
2013-02-13 02:31:00,44.1,27.5,29.91,South,180,2.0,2.0,52,0.00,,,0.00,meteohub,2013-02-13 07:31:00,
2013-02-13 02:36:00,44.1,28.0,29.91,South,180,0.0,2.0,53,0.00,,,0.00,meteohub,2013-02-13 07:36:00,
2013-02-13 02:41:00,43.9,27.9,29.90,South,180,1.0,2.0,53,0.00,,,0.00,meteohub,2013-02-13 07:41:00,
2013-02-13 02:46:00,43.7,27.7,29.90,South,180,1.0,11.0,53,0.00,,,0.00,meteohub,2013-02-13 07:46:00,
2013-02-13 02:51:00,43.7,27.7,29.90,South,180,0.0,11.0,53,0.00,,,0.00,meteohub,2013-02-13 07:51:00,
2013-02-13 02:56:00,43.5,28.4,29.90,East,90,1.0,2.0,55,0.00,,,0.00,meteohub,2013-02-13 07:56:00,
2013-02-13 03:01:00,43.3,28.8,29.91,South,180,2.0,2.0,56,0.00,,,0.00,meteohub,2013-02-13 08:01:00,
2013-02-13 03:06:00,43.3,28.8,29.91,South,180,2.0,2.0,56,0.00,,,0.00,meteohub,2013-02-13 08:06:00,
2013-02-13 03:11:00,43.0,29.3,29.90,South,180,1.0,2.0,58,0.00,,,0.00,meteohub,2013-02-13 08:11:00,
2013-02-13 03:16:00,42.8,29.5,29.90,SE,135,2.0,2.0,59,0.00,,,0.00,meteohub,2013-02-13 08:16:00,
2013-02-13 03:21:00,42.8,29.5,29.90,SE,135,0.0,2.0,59,0.00,,,0.00,meteohub,2013-02-13 08:21:00,
2013-02-13 03:26:00,42.8,29.8,29.90,South,180,2.0,2.0,60,0.00,,,0.00,meteohub,2013-02-13 08:26:00,
2013-02-13 03:31:00,42.6,30.6,29.89,South,180,2.0,2.0,62,0.00,,,0.00,meteohub,2013-02-13 08:31:00,
2013-02-13 03:36:00,42.6,30.6,29.88,NE,45,1.0,2.0,62,0.00,,,0.00,meteohub,2013-02-13 08:36:00,
2013-02-13 03:41:00,42.4,30.7,29.88,NE,45,0.0,2.0,63,0.00,,,0.00,meteohub,2013-02-13 08:41:00,
2013-02-13 03:46:00,42.3,30.6,29.87,West,270,0.0,2.0,63,0.00,,,0.00,meteohub,2013-02-13 08:46:00,
2013-02-13 03:51:00,42.3,30.6,29.88,West,270,0.0,2.0,63,0.00,,,0.00,meteohub,2013-02-13 08:51:00,
2013-02-13 03:56:00,41.9,30.6,29.87,SW,225,1.0,2.0,64,0.00,,,0.00,meteohub,2013-02-13 08:56:00,
2013-02-13 04:01:00,41.7,30.4,29.87,South,180,1.0,2.0,64,0.00,,,0.00,meteohub,2013-02-13 09:01:00,
2013-02-13 04:06:00,41.7,30.4,29.87,South,180,1.0,2.0,64,0.00,,,0.00,meteohub,2013-02-13 09:06:00,
2013-02-13 04:11:00,41.7,30.7,29.86,South,180,1.0,2.0,65,0.00,,,0.00,meteohub,2013-02-13 09:11:00,
2013-02-13 04:16:00,41.7,30.7,29.86,South,180,0.0,2.0,65,0.00,,,0.00,meteohub,2013-02-13 09:16:00,
2013-02-13 04:21:00,41.7,30.4,29.87,NE,45,0.0,2.0,64,0.00,,,0.00,meteohub,2013-02-13 09:21:00,
2013-02-13 04:26:00,41.9,30.6,29.86,East,90,1.0,2.0,64,0.00,,,0.00,meteohub,2013-02-13 09:26:00,
2013-02-13 04:31:00,41.9,30.2,29.86,NW,315,1.0,2.0,63,0.00,,,0.00,meteohub,2013-02-13 09:31:00,
2013-02-13 04:36:00,41.9,30.6,29.86,North,0,1.0,2.0,64,0.00,,,0.00,meteohub,2013-02-13 09:36:00,
2013-02-13 04:41:00,41.7,30.4,29.86,South,180,2.0,2.0,64,0.00,,,0.00,meteohub,2013-02-13 09:41:00,
2013-02-13 04:46:00,41.7,30.4,29.85,North,0,2.0,2.0,64,0.00,,,0.00,meteohub,2013-02-13 09:46:00,
2013-02-13 04:51:00,41.7,30.0,29.85,South,180,0.0,2.0,63,0.00,,,0.00,meteohub,2013-02-13 09:51:00,
2013-02-13 04:57:00,41.9,30.2,29.85,NE,45,2.0,2.0,63,0.00,,,0.00,meteohub,2013-02-13 09:57:00,
2013-02-13 05:02:00,41.9,30.2,29.85,NE,45,2.0,2.0,63,0.00,,,0.00,meteohub,2013-02-13 10:02:00,
2013-02-13 05:07:00,41.9,30.2,29.84,NE,45,2.0,2.0,63,0.00,,,0.00,meteohub,2013-02-13 10:07:00,
2013-02-13 05:12:00,42.3,29.3,29.84,NW,315,2.0,2.0,60,0.00,,,0.00,meteohub,2013-02-13 10:12:00,
2013-02-13 05:17:00,42.8,28.6,29.84,North,0,1.0,4.0,57,0.00,,,0.00,meteohub,2013-02-13 10:17:00,
2013-02-13 05:22:00,43.0,28.8,29.84,North,0,0.0,4.0,57,0.00,,,0.00,meteohub,2013-02-13 10:22:00,
2013-02-13 05:27:00,43.0,29.3,29.84,North,0,1.0,4.0,58,0.00,,,0.00,meteohub,2013-02-13 10:27:00,
2013-02-13 05:32:00,43.0,29.3,29.84,SW,225,2.0,2.0,58,0.00,,,0.00,meteohub,2013-02-13 10:32:00,
2013-02-13 05:37:00,42.8,29.5,29.83,SW,225,1.0,2.0,59,0.00,,,0.00,meteohub,2013-02-13 10:37:00,
2013-02-13 05:42:00,43.0,29.7,29.83,SW,225,2.0,2.0,59,0.00,,,0.00,meteohub,2013-02-13 10:42:00,
2013-02-13 05:47:00,43.0,29.3,29.84,SW,225,0.0,2.0,58,0.00,,,0.00,meteohub,2013-02-13 10:47:00,
2013-02-13 05:52:00,43.0,29.3,29.85,South,180,2.0,2.0,58,0.00,,,0.00,meteohub,2013-02-13 10:52:00,
2013-02-13 05:57:00,43.0,29.7,29.85,South,180,0.0,2.0,59,0.00,,,0.00,meteohub,2013-02-13 10:57:00,
2013-02-13 06:02:00,43.0,30.0,29.85,NE,45,1.0,2.0,60,0.00,,,0.00,meteohub,2013-02-13 11:02:00,
2013-02-13 06:07:00,43.0,30.9,29.84,South,180,1.0,2.0,62,0.00,,,0.00,meteohub,2013-02-13 11:07:00,
2013-02-13 06:12:00,43.0,30.9,29.84,South,180,1.0,2.0,62,0.00,,,0.00,meteohub,2013-02-13 11:12:00,
2013-02-13 06:17:00,43.0,29.7,29.84,NE,45,2.0,4.0,59,0.00,,,0.00,meteohub,2013-02-13 11:17:00,
2013-02-13 06:22:00,43.3,29.1,29.84,North,0,1.0,4.0,57,0.00,,,0.00,meteohub,2013-02-13 11:22:00,
2013-02-13 06:27:00,43.5,29.3,29.83,North,0,2.0,4.0,57,0.00,,,0.00,meteohub,2013-02-13 11:27:00,
2013-02-13 06:32:00,43.5,29.7,29.83,North,0,4.0,4.0,58,0.00,,,0.00,meteohub,2013-02-13 11:32:00,
2013-02-13 06:37:00,43.9,28.4,29.83,North,0,4.0,4.0,54,0.00,,,0.00,meteohub,2013-02-13 11:37:00,
2013-02-13 06:42:00,44.2,26.8,29.83,North,0,7.0,7.0,50,0.00,,,0.00,meteohub,2013-02-13 11:42:00,
2013-02-13 06:47:00,44.8,26.2,29.83,North,0,4.0,7.0,48,0.00,,,0.00,meteohub,2013-02-13 11:47:00,
2013-02-13 06:52:00,45.0,26.4,29.83,NW,315,4.0,7.0,48,0.00,,,0.00,meteohub,2013-02-13 11:52:00,
2013-02-13 06:57:00,45.0,27.5,29.83,North,0,0.0,7.0,50,0.00,,,0.00,meteohub,2013-02-13 11:57:00,
2013-02-13 07:02:00,44.8,27.7,29.83,NE,45,2.0,4.0,51,0.00,,,0.00,meteohub,2013-02-13 12:02:00,
2013-02-13 07:07:00,44.8,27.7,29.84,NE,45,2.0,4.0,51,0.00,,,0.00,meteohub,2013-02-13 12:07:00,
2013-02-13 07:12:00,43.9,28.4,29.83,North,0,0.0,2.0,54,0.00,,,0.00,meteohub,2013-02-13 12:12:00,
2013-02-13 07:17:00,43.5,28.9,29.83,West,270,2.0,2.0,56,0.00,,,0.00,meteohub,2013-02-13 12:17:00,
2013-02-13 07:22:00,43.3,30.0,29.83,North,0,1.0,2.0,59,0.00,,,0.00,meteohub,2013-02-13 12:22:00,
2013-02-13 07:27:00,42.8,30.7,29.83,SW,225,0.0,2.0,62,0.00,,,0.00,meteohub,2013-02-13 12:27:00,
2013-02-13 07:32:00,42.4,32.2,29.83,South,180,2.0,2.0,67,0.00,,,0.00,meteohub,2013-02-13 12:32:00,
2013-02-13 07:37:00,42.1,33.1,29.83,West,270,2.0,2.0,70,0.00,,,0.00,meteohub,2013-02-13 12:37:00,
2013-02-13 07:42:00,41.9,33.8,29.83,South,180,2.0,3.0,73,0.00,,,0.00,meteohub,2013-02-13 12:42:00,
2013-02-13 07:47:00,41.9,34.2,29.83,South,180,2.0,3.0,74,0.00,,,0.00,meteohub,2013-02-13 12:47:00,
2013-02-13 07:52:00,41.7,34.7,29.82,SE,135,2.0,3.0,76,0.00,,,0.00,meteohub,2013-02-13 12:52:00,
2013-02-13 07:57:00,41.7,34.3,29.83,NW,315,2.0,2.0,75,0.00,,,0.00,meteohub,2013-02-13 12:57:00,
2013-02-13 08:02:00,41.9,34.2,29.83,NW,315,0.0,2.0,74,0.00,,,0.00,meteohub,2013-02-13 13:02:00,
2013-02-13 08:07:00,42.1,34.7,29.83,SW,225,2.0,2.0,75,0.00,,,0.00,meteohub,2013-02-13 13:07:00,
2013-02-13 08:12:00,42.3,35.2,29.84,SE,135,1.0,2.0,76,0.00,,,0.00,meteohub,2013-02-13 13:12:00,
2013-02-13 08:17:00,42.3,34.9,29.83,SE,135,1.0,2.0,75,0.00,,,0.00,meteohub,2013-02-13 13:17:00,
2013-02-13 08:22:00,42.8,34.3,29.83,South,180,3.0,3.0,72,0.00,,,0.00,meteohub,2013-02-13 13:22:00,
2013-02-13 08:27:00,42.6,34.9,29.84,East,90,2.0,4.0,74,0.00,,,0.00,meteohub,2013-02-13 13:27:00,
2013-02-13 08:32:00,42.6,34.9,29.84,South,180,2.0,4.0,74,0.00,,,0.00,meteohub,2013-02-13 13:32:00,
2013-02-13 08:37:00,42.6,35.2,29.83,NE,45,2.0,9.0,75,0.00,,,0.00,meteohub,2013-02-13 13:37:00,
2013-02-13 08:42:00,42.6,35.6,29.83,NW,315,2.0,9.0,76,0.00,,,0.00,meteohub,2013-02-13 13:42:00,
2013-02-13 08:47:00,42.6,36.0,29.83,North,0,2.0,9.0,77,0.00,,,0.00,meteohub,2013-02-13 13:47:00,
2013-02-13 08:52:00,42.8,36.1,29.84,SW,225,4.0,9.0,77,0.00,,,0.00,meteohub,2013-02-13 13:52:00,
2013-02-13 08:57:00,42.8,36.5,29.85,SW,225,3.0,4.0,78,0.00,,,0.00,meteohub,2013-02-13 13:57:00,
2013-02-13 09:02:00,43.0,36.7,29.84,South,180,2.0,5.0,78,0.00,,,0.00,meteohub,2013-02-13 14:02:00,
2013-02-13 09:07:00,43.0,36.7,29.84,South,180,2.0,5.0,78,0.00,,,0.00,meteohub,2013-02-13 14:07:00,
2013-02-13 09:12:00,43.2,37.4,29.84,SE,135,2.0,5.0,80,0.00,,,0.00,meteohub,2013-02-13 14:12:00,
2013-02-13 09:17:00,43.0,37.2,29.83,South,180,0.0,2.0,80,0.00,,,0.00,meteohub,2013-02-13 14:17:00,
2013-02-13 09:22:00,43.2,37.8,29.83,South,180,0.0,2.0,81,0.00,,,0.00,meteohub,2013-02-13 14:22:00,
2013-02-13 09:27:00,43.2,37.8,29.84,SE,135,2.0,2.0,81,0.00,,,0.00,meteohub,2013-02-13 14:27:00,
2013-02-13 09:32:00,43.2,37.8,29.83,North,0,2.0,3.0,81,0.00,,,0.00,meteohub,2013-02-13 14:32:00,
2013-02-13 09:37:00,43.2,37.4,29.82,NE,45,4.0,4.0,80,0.00,,,0.00,meteohub,2013-02-13 14:37:00,
2013-02-13 09:42:00,43.2,37.8,29.82,South,180,2.0,4.0,81,0.01,,,0.01,meteohub,2013-02-13 14:42:00,
2013-02-13 09:47:00,43.2,38.1,29.82,NE,45,2.0,4.0,82,0.01,,,0.01,meteohub,2013-02-13 14:47:00,
2013-02-13 09:52:00,43.2,38.1,29.83,South,180,2.0,4.0,82,0.01,,,0.01,meteohub,2013-02-13 14:52:00,
2013-02-13 09:57:00,43.3,38.3,29.82,NNW,338,2.0,3.0,82,0.01,,,0.01,meteohub,2013-02-13 14:57:00,
2013-02-13 10:02:00,43.3,38.3,29.81,NW,315,4.0,4.0,82,0.01,,,0.01,meteohub,2013-02-13 15:02:00,
2013-02-13 10:07:00,43.5,38.5,29.81,NE,45,4.0,4.0,82,0.01,,,0.01,meteohub,2013-02-13 15:07:00,
2013-02-13 10:12:00,43.5,38.5,29.80,NE,45,3.0,5.0,82,0.01,,,0.01,meteohub,2013-02-13 15:12:00,
2013-02-13 10:17:00,43.7,38.8,29.81,North,0,3.0,5.0,83,0.01,,,0.01,meteohub,2013-02-13 15:17:00,
2013-02-13 10:22:00,43.7,38.8,29.81,South,180,2.0,5.0,83,0.01,,,0.01,meteohub,2013-02-13 15:22:00,
2013-02-13 10:27:00,43.7,38.8,29.80,North,0,2.0,4.0,83,0.01,,,0.01,meteohub,2013-02-13 15:27:00,
2013-02-13 10:32:00,43.5,39.0,29.81,North,0,1.0,3.0,84,0.01,,,0.01,meteohub,2013-02-13 15:32:00,
2013-02-13 10:37:00,43.3,38.8,29.80,East,90,2.0,2.0,84,0.01,,,0.01,meteohub,2013-02-13 15:37:00,
2013-02-13 10:42:00,43.2,39.0,29.81,NE,45,2.0,2.0,85,0.00,,,0.01,meteohub,2013-02-13 15:42:00,
2013-02-13 10:47:00,43.0,38.8,29.80,North,0,4.0,4.0,85,0.00,,,0.01,meteohub,2013-02-13 15:47:00,
2013-02-13 10:52:00,42.8,38.8,29.80,NE,45,1.0,4.0,86,0.00,,,0.01,meteohub,2013-02-13 15:52:00,
2013-02-13 10:57:00,42.6,39.4,29.80,NE,45,0.0,4.0,88,0.00,,,0.01,meteohub,2013-02-13 15:57:00,
2013-02-13 11:02:00,42.6,39.4,29.80,NE,45,2.0,4.0,88,0.00,,,0.01,meteohub,2013-02-13 16:02:00,
2013-02-13 11:07:00,42.6,39.4,29.80,NE,45,2.0,2.0,88,0.00,,,0.01,meteohub,2013-02-13 16:07:00,
2013-02-13 11:12:00,42.6,39.9,29.79,East,90,2.0,2.0,90,0.00,,,0.01,meteohub,2013-02-13 16:12:00,
2013-02-13 11:17:00,42.6,40.1,29.79,NE,45,2.0,2.0,91,0.00,,,0.01,meteohub,2013-02-13 16:17:00,
2013-02-13 11:22:00,42.6,40.5,29.79,West,270,1.0,2.0,92,0.00,,,0.01,meteohub,2013-02-13 16:22:00,
2013-02-13 11:27:00,42.6,40.8,29.79,SE,135,1.0,2.0,93,0.00,,,0.01,meteohub,2013-02-13 16:27:00,
2013-02-13 11:32:00,42.6,40.8,29.79,SE,135,2.0,2.0,93,0.00,,,0.01,meteohub,2013-02-13 16:32:00,
2013-02-13 11:37:00,42.8,41.0,29.78,SW,225,2.0,2.0,93,0.00,,,0.01,meteohub,2013-02-13 16:37:00,
2013-02-13 11:42:00,42.8,41.0,29.78,SE,135,2.0,2.0,93,0.00,,,0.01,meteohub,2013-02-13 16:42:00,
2013-02-13 11:47:00,42.8,41.0,29.77,East,90,2.0,2.0,93,0.00,,,0.01,meteohub,2013-02-13 16:47:00,
2013-02-13 11:52:00,42.8,41.2,29.77,South,180,1.0,2.0,94,0.00,,,0.01,meteohub,2013-02-13 16:52:00,
2013-02-13 11:57:00,42.6,41.4,29.77,SW,225,2.0,3.0,95,0.01,,,0.02,meteohub,2013-02-13 16:57:00,
2013-02-13 12:02:00,42.8,41.5,29.77,East,90,1.0,3.0,95,0.01,,,0.02,meteohub,2013-02-13 17:02:00,
2013-02-13 12:07:00,42.8,41.5,29.77,East,90,2.0,3.0,95,0.01,,,0.02,meteohub,2013-02-13 17:07:00,
2013-02-13 12:12:00,42.8,41.5,29.77,South,180,2.0,3.0,95,0.01,,,0.02,meteohub,2013-02-13 17:12:00,
2013-02-13 12:17:00,42.8,41.5,29.76,South,180,2.0,3.0,95,0.01,,,0.02,meteohub,2013-02-13 17:17:00,
2013-02-13 12:22:00,42.8,41.7,29.75,SE,135,2.0,2.0,96,0.01,,,0.02,meteohub,2013-02-13 17:22:00,
2013-02-13 12:27:00,42.8,41.7,29.75,SE,135,2.0,3.0,96,0.02,,,0.04,meteohub,2013-02-13 17:27:00,
2013-02-13 12:32:00,43.0,41.9,29.74,South,180,2.0,4.0,96,0.02,,,0.04,meteohub,2013-02-13 17:32:00,
2013-02-13 12:37:00,43.0,42.3,29.74,North,0,1.0,4.0,97,0.02,,,0.04,meteohub,2013-02-13 17:37:00,
2013-02-13 12:42:00,43.0,42.3,29.73,SW,225,2.0,4.0,97,0.02,,,0.04,meteohub,2013-02-13 17:42:00,
2013-02-13 12:47:00,43.0,42.3,29.73,SSW,203,4.0,4.0,97,0.02,,,0.04,meteohub,2013-02-13 17:47:00,
2013-02-13 12:52:00,43.0,42.3,29.72,SW,225,2.0,4.0,97,0.02,,,0.04,meteohub,2013-02-13 17:52:00,
2013-02-13 12:57:00,43.0,42.3,29.72,South,180,3.0,4.0,97,0.01,,,0.04,meteohub,2013-02-13 17:57:00,
2013-02-13 13:02:00,43.0,42.3,29.72,South,180,2.0,4.0,97,0.01,,,0.04,meteohub,2013-02-13 18:02:00,
2013-02-13 13:07:00,43.0,42.3,29.71,NE,45,2.0,4.0,97,0.01,,,0.04,meteohub,2013-02-13 18:07:00,
2013-02-13 13:12:00,43.0,42.3,29.71,South,180,2.0,3.0,97,0.01,,,0.04,meteohub,2013-02-13 18:12:00,
2013-02-13 13:17:00,43.2,42.4,29.71,NE,45,1.0,3.0,97,0.01,,,0.04,meteohub,2013-02-13 18:17:00,
2013-02-13 13:22:00,43.2,42.4,29.70,West,270,2.0,2.0,97,0.00,,,0.04,meteohub,2013-02-13 18:22:00,
2013-02-13 13:27:00,43.2,42.4,29.70,North,0,2.0,2.0,97,0.00,,,0.04,meteohub,2013-02-13 18:27:00,
2013-02-13 13:32:00,43.0,42.3,29.70,North,0,2.0,2.0,97,0.00,,,0.04,meteohub,2013-02-13 18:32:00,
2013-02-13 13:38:00,42.8,42.1,29.69,SW,225,2.0,2.0,97,0.00,,,0.04,meteohub,2013-02-13 18:38:00,
2013-02-13 13:43:00,42.8,42.1,29.69,South,180,1.0,3.0,97,0.01,,,0.05,meteohub,2013-02-13 18:43:00,
2013-02-13 13:48:00,42.6,42.4,29.69,NW,315,2.0,3.0,99,0.01,,,0.05,meteohub,2013-02-13 18:48:00,
2013-02-13 13:53:00,42.6,42.4,29.68,South,180,2.0,3.0,99,0.01,,,0.05,meteohub,2013-02-13 18:53:00,
2013-02-13 13:58:00,42.8,42.3,29.68,SW,225,2.0,2.0,98,0.01,,,0.05,meteohub,2013-02-13 18:58:00,
2013-02-13 14:03:00,42.6,42.4,29.68,West,270,2.0,2.0,99,0.01,,,0.05,meteohub,2013-02-13 19:03:00,
2013-02-13 14:08:00,42.6,42.4,29.68,North,0,1.0,2.0,99,0.02,,,0.06,meteohub,2013-02-13 19:08:00,
2013-02-13 14:13:00,42.8,42.3,29.68,East,90,1.0,2.0,98,0.02,,,0.06,meteohub,2013-02-13 19:13:00,
2013-02-13 14:18:00,42.8,42.3,29.68,East,90,2.0,3.0,98,0.02,,,0.06,meteohub,2013-02-13 19:18:00,
2013-02-13 14:23:00,42.6,42.4,29.67,NW,315,1.0,3.0,99,0.02,,,0.06,meteohub,2013-02-13 19:23:00,
2013-02-13 14:28:00,42.8,42.3,29.67,NE,45,2.0,3.0,98,0.02,,,0.06,meteohub,2013-02-13 19:28:00,
2013-02-13 14:33:00,42.8,42.3,29.67,East,90,2.0,2.0,98,0.02,,,0.06,meteohub,2013-02-13 19:33:00,
2013-02-13 14:38:00,42.8,42.3,29.66,North,0,1.0,3.0,98,0.02,,,0.07,meteohub,2013-02-13 19:38:00,
2013-02-13 14:43:00,43.0,42.4,29.67,North,0,1.0,3.0,98,0.02,,,0.07,meteohub,2013-02-13 19:43:00,
2013-02-13 14:48:00,42.8,42.3,29.66,NE,45,2.0,3.0,98,0.02,,,0.07,meteohub,2013-02-13 19:48:00,
2013-02-13 14:53:00,42.8,42.3,29.66,SE,135,2.0,2.0,98,0.02,,,0.07,meteohub,2013-02-13 19:53:00,
2013-02-13 14:58:00,42.8,42.3,29.66,East,90,3.0,3.0,98,0.02,,,0.07,meteohub,2013-02-13 19:58:00,
2013-02-13 15:03:00,42.8,42.3,29.66,NE,45,2.0,4.0,98,0.02,,,0.07,meteohub,2013-02-13 20:03:00,
2013-02-13 15:08:00,42.8,42.3,29.66,NW,315,2.0,4.0,98,0.01,,,0.07,meteohub,2013-02-13 20:08:00,
2013-02-13 15:13:00,42.8,42.3,29.67,NE,45,2.0,4.0,98,0.01,,,0.07,meteohub,2013-02-13 20:13:00,
2013-02-13 15:18:00,42.8,42.3,29.67,SW,225,2.0,4.0,98,0.01,,,0.07,meteohub,2013-02-13 20:18:00,
2013-02-13 15:23:00,42.8,42.3,29.68,South,180,2.0,3.0,98,0.01,,,0.07,meteohub,2013-02-13 20:23:00,
2013-02-13 15:28:00,42.8,42.3,29.67,South,180,0.0,2.0,98,0.02,,,0.08,meteohub,2013-02-13 20:28:00,
2013-02-13 15:33:00,42.8,42.3,29.67,South,180,2.0,2.0,98,0.02,,,0.08,meteohub,2013-02-13 20:33:00,
2013-02-13 15:39:00,43.0,42.4,29.68,NE,45,2.0,2.0,98,0.01,,,0.08,meteohub,2013-02-13 20:39:00,
2013-02-13 15:44:00,43.0,42.4,29.67,South,180,2.0,2.0,98,0.02,,,0.09,meteohub,2013-02-13 20:44:00,
2013-02-13 15:49:00,43.0,42.4,29.67,South,180,2.0,3.0,98,0.04,,,0.11,meteohub,2013-02-13 20:49:00,
2013-02-13 15:54:00,42.8,42.3,29.67,South,180,2.0,3.0,98,0.04,,,0.11,meteohub,2013-02-13 20:54:00,
2013-02-13 15:59:00,42.8,42.3,29.68,SE,135,2.0,3.0,98,0.04,,,0.11,meteohub,2013-02-13 20:59:00,
2013-02-13 16:04:00,42.8,42.3,29.68,NW,315,2.0,2.0,98,0.04,,,0.11,meteohub,2013-02-13 21:04:00,
2013-02-13 16:09:00,42.8,42.3,29.67,North,0,3.0,3.0,98,0.04,,,0.11,meteohub,2013-02-13 21:09:00,
2013-02-13 16:14:00,42.8,42.3,29.67,SE,135,2.0,3.0,98,0.04,,,0.11,meteohub,2013-02-13 21:14:00,
2013-02-13 16:19:00,42.6,42.4,29.66,South,180,2.0,4.0,99,0.04,,,0.11,meteohub,2013-02-13 21:19:00,
2013-02-13 16:24:00,42.6,42.4,29.66,SE,135,2.0,4.0,99,0.04,,,0.11,meteohub,2013-02-13 21:24:00,
2013-02-13 16:29:00,42.4,42.3,29.66,SW,225,2.0,4.0,99,0.02,,,0.11,meteohub,2013-02-13 21:29:00,
2013-02-13 16:34:00,42.4,42.3,29.66,South,180,1.0,3.0,99,0.02,,,0.11,meteohub,2013-02-13 21:34:00,
2013-02-13 16:39:00,42.4,42.3,29.66,South,180,1.0,3.0,99,0.01,,,0.11,meteohub,2013-02-13 21:39:00,
2013-02-13 16:44:00,42.4,42.3,29.66,South,180,2.0,2.0,99,0.00,,,0.11,meteohub,2013-02-13 21:44:00,
2013-02-13 16:49:00,42.3,42.1,29.66,South,180,2.0,3.0,99,0.00,,,0.11,meteohub,2013-02-13 21:49:00,
2013-02-13 16:54:00,42.3,42.1,29.66,South,180,2.0,3.0,99,0.00,,,0.11,meteohub,2013-02-13 21:54:00,
2013-02-13 16:59:00,42.3,42.1,29.66,NE,45,0.0,3.0,99,0.00,,,0.11,meteohub,2013-02-13 21:59:00,
2013-02-13 17:04:00,42.3,42.1,29.66,West,270,2.0,2.0,99,0.00,,,0.11,meteohub,2013-02-13 22:04:00,
2013-02-13 17:09:00,42.3,42.1,29.67,SW,225,1.0,2.0,99,0.00,,,0.11,meteohub,2013-02-13 22:09:00,
2013-02-13 17:14:00,42.3,42.1,29.67,South,180,2.0,2.0,99,0.00,,,0.11,meteohub,2013-02-13 22:14:00,
2013-02-13 17:19:00,42.3,42.1,29.67,South,180,1.0,2.0,99,0.01,,,0.12,meteohub,2013-02-13 22:19:00,
2013-02-13 17:24:00,42.3,42.1,29.67,South,180,1.0,2.0,99,0.01,,,0.12,meteohub,2013-02-13 22:24:00,
2013-02-13 17:29:00,42.3,42.1,29.67,SW,225,2.0,2.0,99,0.01,,,0.12,meteohub,2013-02-13 22:29:00,
2013-02-13 17:34:00,42.3,42.1,29.68,SW,225,2.0,2.0,99,0.01,,,0.12,meteohub,2013-02-13 22:34:00,
2013-02-13 17:39:00,42.1,41.9,29.68,South,180,1.0,2.0,99,0.01,,,0.12,meteohub,2013-02-13 22:39:00,
2013-02-13 17:45:00,42.1,41.9,29.68,South,180,1.0,2.0,99,0.01,,,0.12,meteohub,2013-02-13 22:45:00,
2013-02-13 17:50:00,41.9,41.7,29.68,SW,225,2.0,2.0,99,0.01,,,0.12,meteohub,2013-02-13 22:50:00,
2013-02-13 17:55:00,41.9,41.7,29.68,SW,225,3.0,3.0,99,0.01,,,0.12,meteohub,2013-02-13 22:55:00,
2013-02-13 18:00:00,41.9,41.7,29.68,NW,315,0.0,2.0,99,0.01,,,0.12,meteohub,2013-02-13 23:00:00,
2013-02-13 18:05:00,41.9,41.7,29.69,SW,225,1.0,3.0,99,0.02,,,0.13,meteohub,2013-02-13 23:05:00,
2013-02-13 18:10:00,41.9,41.7,29.69,South,180,1.0,3.0,99,0.02,,,0.13,meteohub,2013-02-13 23:10:00,
2013-02-13 18:15:00,41.9,41.7,29.69,East,90,0.0,2.0,99,0.01,,,0.13,meteohub,2013-02-13 23:15:00,
2013-02-13 18:20:00,41.9,41.7,29.70,NE,45,2.0,2.0,99,0.02,,,0.14,meteohub,2013-02-13 23:20:00,
2013-02-13 18:25:00,42.1,41.9,29.70,NE,45,2.0,14.0,99,0.02,,,0.14,meteohub,2013-02-13 23:25:00,
2013-02-13 18:30:00,42.1,41.9,29.70,South,180,2.0,14.0,99,0.02,,,0.14,meteohub,2013-02-13 23:30:00,
2013-02-13 18:35:00,42.3,42.1,29.70,North,0,4.0,4.0,99,0.02,,,0.14,meteohub,2013-02-13 23:35:00,
2013-02-13 18:40:00,42.3,42.1,29.71,NNW,338,4.0,8.0,99,0.02,,,0.14,meteohub,2013-02-13 23:40:00,
2013-02-13 18:45:00,42.3,42.1,29.71,NW,315,3.0,8.0,99,0.02,,,0.14,meteohub,2013-02-13 23:45:00,
2013-02-13 18:50:00,42.3,42.1,29.71,NW,315,3.0,8.0,99,0.02,,,0.14,meteohub,2013-02-13 23:50:00,
2013-02-13 18:56:00,42.6,41.5,29.73,East,90,12.0,12.0,96,0.02,,,0.14,meteohub,2013-02-13 23:56:00,
2013-02-13 19:01:00,42.6,40.8,29.74,South,180,4.0,12.0,93,0.01,,,0.14,meteohub,2013-02-14 00:01:00,
2013-02-13 19:02:00,42.6,40.8,29.74,South,180,4.0,12.0,93,0.01,,,0.14,meteohub,2013-02-14 00:02:00,
2013-02-13 19:07:00,42.6,39.4,29.75,North,0,5.0,12.0,88,0.01,,,0.00,meteohub,2013-02-14 00:07:00,
2013-02-13 19:17:00,42.1,38.1,29.75,NW,315,6.0,11.0,86,0.01,,,0.00,meteohub,2013-02-14 00:17:00,
2013-02-13 19:22:00,41.9,37.8,29.75,NW,315,4.0,11.0,85,0.00,,,0.00,meteohub,2013-02-14 00:22:00,
2013-02-13 19:27:00,41.7,37.6,29.76,SW,225,2.0,13.0,85,0.00,,,0.00,meteohub,2013-02-14 00:27:00,
2013-02-13 19:32:00,41.5,37.0,29.76,NNW,338,5.0,13.0,84,0.00,,,0.00,meteohub,2013-02-14 00:32:00,
2013-02-13 19:37:00,41.2,36.7,29.76,West,270,8.0,13.0,84,0.00,,,0.00,meteohub,2013-02-14 00:37:00,
2013-02-13 19:42:00,41.0,36.3,29.76,NW,315,8.0,12.0,83,0.00,,,0.00,meteohub,2013-02-14 00:42:00,
2013-02-13 19:47:00,40.8,36.1,29.77,NW,315,5.0,12.0,83,0.00,,,0.00,meteohub,2013-02-14 00:47:00,
2013-02-13 19:52:00,40.5,35.4,29.77,NW,315,4.0,15.0,82,0.00,,,0.00,meteohub,2013-02-14 00:52:00,
2013-02-13 19:57:00,40.5,35.1,29.78,SE,135,5.0,15.0,81,0.00,,,0.00,meteohub,2013-02-14 00:57:00,
2013-02-13 20:02:00,40.3,34.9,29.78,West,270,2.0,15.0,81,0.00,,,0.00,meteohub,2013-02-14 01:02:00,
2013-02-13 20:07:00,40.3,34.5,29.78,North,0,5.0,11.0,80,0.00,,,0.00,meteohub,2013-02-14 01:07:00,
2013-02-13 20:12:00,40.1,34.2,29.78,North,0,5.0,11.0,79,0.00,,,0.00,meteohub,2013-02-14 01:12:00,
2013-02-13 20:17:00,40.1,33.8,29.78,SW,225,3.0,11.0,78,0.00,,,0.00,meteohub,2013-02-14 01:17:00,
2013-02-13 20:22:00,39.9,33.3,29.79,SW,225,2.0,8.0,77,0.00,,,0.00,meteohub,2013-02-14 01:22:00,
2013-02-13 20:27:00,39.9,33.3,29.79,NE,45,3.0,8.0,77,0.00,,,0.00,meteohub,2013-02-14 01:27:00,
2013-02-13 20:32:00,39.7,33.1,29.79,NE,45,11.0,11.0,77,0.00,,,0.00,meteohub,2013-02-14 01:32:00,
2013-02-13 20:37:00,40.1,32.9,29.79,North,0,11.0,22.0,75,0.00,,,0.00,meteohub,2013-02-14 01:37:00,
2013-02-13 20:42:00,40.1,32.9,29.80,North,0,4.0,22.0,75,0.00,,,0.00,meteohub,2013-02-14 01:42:00,
2013-02-13 20:47:00,39.9,32.7,29.79,North,0,5.0,22.0,75,0.00,,,0.00,meteohub,2013-02-14 01:47:00,
2013-02-13 20:52:00,39.9,32.7,29.80,SW,225,4.0,13.0,75,0.00,,,0.00,meteohub,2013-02-14 01:52:00,
2013-02-13 20:57:00,39.7,32.5,29.80,North,0,5.0,12.0,75,0.00,,,0.00,meteohub,2013-02-14 01:57:00,
2013-02-13 21:02:00,39.6,32.4,29.81,North,0,17.0,17.0,75,0.00,,,0.00,meteohub,2013-02-14 02:02:00,
2013-02-13 21:07:00,39.7,32.5,29.80,SSW,203,10.0,17.0,75,0.00,,,0.00,meteohub,2013-02-14 02:07:00,
2013-02-13 21:13:00,39.7,32.2,29.81,NE,45,8.0,17.0,74,0.00,,,0.00,meteohub,2013-02-14 02:13:00,
2013-02-13 21:18:00,39.7,32.2,29.80,NE,45,2.0,17.0,74,0.00,,,0.00,meteohub,2013-02-14 02:18:00,
2013-02-13 21:23:00,39.6,32.0,29.81,SE,135,8.0,10.0,74,0.00,,,0.00,meteohub,2013-02-14 02:23:00,
2013-02-13 21:28:00,39.4,31.8,29.81,SW,225,5.0,9.0,74,0.00,,,0.00,meteohub,2013-02-14 02:28:00,
2013-02-13 21:33:00,39.6,32.0,29.82,West,270,2.0,12.0,74,0.00,,,0.00,meteohub,2013-02-14 02:33:00,
2013-02-13 21:38:00,39.6,32.0,29.82,NW,315,13.0,13.0,74,0.00,,,0.00,meteohub,2013-02-14 02:38:00,
2013-02-13 21:43:00,39.7,32.2,29.82,WSW,248,8.0,13.0,74,0.00,,,0.00,meteohub,2013-02-14 02:43:00,
2013-02-13 21:48:00,39.6,32.0,29.82,NE,45,4.0,13.0,74,0.00,,,0.00,meteohub,2013-02-14 02:48:00,
2013-02-13 21:53:00,39.4,31.8,29.81,NW,315,12.0,15.0,74,0.00,,,0.00,meteohub,2013-02-14 02:53:00,
2013-02-13 21:58:00,39.2,31.6,29.81,West,270,5.0,15.0,74,0.00,,,0.00,meteohub,2013-02-14 02:58:00,
2013-02-13 22:03:00,39.2,31.6,29.81,SW,225,6.0,15.0,74,0.00,,,0.00,meteohub,2013-02-14 03:03:00,
2013-02-13 22:08:00,39.0,32.2,29.81,SE,135,10.0,15.0,76,0.00,,,0.00,meteohub,2013-02-14 03:08:00,
2013-02-13 22:13:00,38.8,32.0,29.81,North,0,11.0,15.0,76,0.00,,,0.00,meteohub,2013-02-14 03:13:00,
2013-02-13 22:18:00,38.7,32.0,29.81,North,0,5.0,15.0,77,0.00,,,0.00,meteohub,2013-02-14 03:18:00,
2013-02-13 22:23:00,38.7,32.0,29.82,NE,45,4.0,11.0,77,0.00,,,0.00,meteohub,2013-02-14 03:23:00,
2013-02-13 22:28:00,38.8,32.0,29.81,South,180,6.0,11.0,76,0.00,,,0.00,meteohub,2013-02-14 03:28:00,
2013-02-13 22:33:00,39.0,32.2,29.82,NW,315,11.0,11.0,76,0.00,,,0.00,meteohub,2013-02-14 03:33:00,
2013-02-13 22:38:00,39.0,32.2,29.83,SSE,158,8.0,19.0,76,0.00,,,0.00,meteohub,2013-02-14 03:38:00,
2013-02-13 22:43:00,39.0,32.2,29.83,NW,315,4.0,21.0,76,0.00,,,0.00,meteohub,2013-02-14 03:43:00,
2013-02-13 22:48:00,38.8,32.0,29.83,NW,315,3.0,21.0,76,0.00,,,0.00,meteohub,2013-02-14 03:48:00,
2013-02-13 22:53:00,38.5,31.6,29.83,SE,135,6.0,21.0,76,0.00,,,0.00,meteohub,2013-02-14 03:53:00,
2013-02-13 22:58:00,38.3,31.5,29.83,WNW,293,14.0,14.0,76,0.00,,,0.00,meteohub,2013-02-14 03:58:00,
2013-02-13 23:03:00,38.5,31.6,29.83,NW,315,7.0,8.0,76,0.00,,,0.00,meteohub,2013-02-14 04:03:00,
2013-02-13 23:08:00,38.7,31.8,29.83,NE,45,8.0,14.0,76,0.00,,,0.00,meteohub,2013-02-14 04:08:00,
2013-02-13 23:13:00,38.7,31.8,29.84,East,90,10.0,14.0,76,0.00,,,0.00,meteohub,2013-02-14 04:13:00,
2013-02-13 23:18:00,38.7,31.8,29.83,SSW,203,8.0,17.0,76,0.00,,,0.00,meteohub,2013-02-14 04:18:00,
2013-02-13 23:24:00,38.8,32.0,29.84,NW,315,4.0,17.0,76,0.00,,,0.00,meteohub,2013-02-14 04:24:00,
2013-02-13 23:29:00,38.8,32.0,29.84,SW,225,6.0,10.0,76,0.00,,,0.00,meteohub,2013-02-14 04:29:00,
2013-02-13 23:34:00,38.8,32.0,29.84,NE,45,6.0,9.0,76,0.00,,,0.00,meteohub,2013-02-14 04:34:00,
2013-02-13 23:39:00,38.8,32.2,29.85,North,0,7.0,9.0,77,0.00,,,0.00,meteohub,2013-02-14 04:39:00,
2013-02-13 23:44:00,38.8,32.2,29.85,North,0,5.0,9.0,77,0.00,,,0.00,meteohub,2013-02-14 04:44:00,
2013-02-13 23:49:00,38.8,32.2,29.85,NE,45,8.0,8.0,77,0.00,,,0.00,meteohub,2013-02-14 04:49:00,
2013-02-13 23:54:00,39.0,32.4,29.85,NW,315,10.0,10.0,77,0.00,,,0.00,meteohub,2013-02-14 04:54:00,
2013-02-13 23:59:00,39.0,32.4,29.85,NW,315,12.0,12.0,77,0.00,,,0.00,meteohub,2013-02-14 04:59:00,